#timestamp,LO_Frequency,Hit,StdDev 
1551409215.3,286047003.1,N
1551409235.2,286047005.4,N
1551409255.0,286047005.7,N
1551409255.9,286047005.7,N
1551409275.8,286047001.5,N
1551409295.6,286047005.1,N
1551409315.4,286047007.0,N
1551409335.3,286047008.4,N
1551409355.1,286047006.2,N
1551409375.9,286047003.0,N
1551409395.7,286047003.4,N
1551409415.5,286047005.8,N
1551409435.4,286047005.2,N
1551409455.2,286047003.0,N
1551409475.0,286047005.4,N
1551409475.9,286047005.4,N
1551409495.8,286047005.3,N
1551409515.6,286047005.0,N
1551409535.4,286047005.8,N
1551409555.3,286047004.1,N
1551409575.1,286047001.8,N
1551409595.9,286047002.6,N
1551409615.7,286047002.2,N
1551409635.5,286047003.7,N
1551409655.4,286047004.2,N
1551409675.2,286047004.1,N
1551409695.1,286047002.9,N
1551409696.0,286047002.9,N
1551409715.8,286046999.8,N
1551409735.6,286047000.4,N
1551409755.5,286047000.5,N
1551409775.3,286047002.6,N
1551409795.1,286047000.2,N
1551409815.2,286046998.7,N
1551409835.0,286047000.3,N
1551409835.9,286047000.3,N
1551409855.7,286047000.7,N
1551409875.6,286047000.7,N
1551409895.4,286047000.3,N
1551409915.3,286046999.0,N
1551409935.1,286047000.4,N
1551409955.8,286047000.3,N
1551409975.7,286047000.6,N
1551409995.5,286046998.9,N
1551410015.4,286046996.7,N
1551410035.2,286046999.5,N
1551410055.0,286047001.2,N
1551410055.9,286047001.2,N
1551410075.8,286047002.7,N
1551410095.6,286046998.8,N
1551410115.4,286046997.2,N
1551410135.3,286046997.5,N
1551410155.1,286046997.3,N
1551410175.9,286046999.1,N
1551410195.7,286046998.6,N
1551410215.5,286047001.0,N
1551410235.4,286047001.0,N
1551410255.2,286046998.3,N
1551410275.1,286046999.2,N
1551410276.0,286046999.2,N
1551410295.8,286046999.6,N
1551410315.6,286046998.7,N
1551410335.5,286047000.5,N
1551410355.3,286047001.9,N
1551410375.1,286047001.7,N
1551410395.9,286047003.5,N
1551410415.7,286047001.4,N
1551410435.6,286046999.7,N
1551410455.4,286047001.3,N
1551410475.2,286047005.7,Y
1551410495.1,286047005.4,P
1551410496.0,286047005.4,N
1551410515.8,286047002.9,N
1551410535.6,286047003.1,N
1551410555.5,286047002.0,N
1551410575.3,286047001.4,N
1551410595.2,286047002.3,N
1551410615.9,286047002.8,N
1551410635.7,286047001.6,N
1551410655.6,286047004.4,N
1551410675.4,286047001.5,N
1551410695.2,286047002.2,N
1551410715.1,286047001.1,N
1551410716.0,286047001.1,N
1551410735.8,286047000.9,N
1551410755.7,286047002.4,N
1551410775.5,286047003.9,N
1551410795.3,286047001.4,N
1551410815.2,286047000.5,N
1551410835.0,286047000.7,N
1551410835.9,286047000.7,N
1551410855.7,286046998.9,N
1551410875.6,286046996.9,N
1551410895.4,286046995.4,N
1551410915.3,286046995.6,N
1551410935.1,286046996.2,N
1551410936.0,286046996.2,N
1551410955.8,286046996.1,N
1551410975.7,286046993.9,N
1551410995.5,286046995.8,N
1551411015.4,286046993.3,N
1551411035.2,286046999.2,N
1551411055.0,286047001.1,N
1551411055.9,286047001.1,N
1551411075.8,286047000.4,N
1551411095.6,286047001.1,N
1551411115.4,286047002.8,N
1551411135.3,286047001.3,N
1551411155.1,286047006.0,N
1551411175.9,286047004.3,N
1551411195.7,286047002.6,N
1551411215.5,286046998.5,N
1551411235.4,286046999.2,N
1551411255.2,286047000.8,N
1551411275.1,286047000.9,N
1551411276.0,286047000.9,N
1551411295.8,286046999.8,N
1551411315.6,286047002.5,N
1551411335.5,286047004.2,N
1551411355.3,286047004.0,N
1551411375.2,286047003.8,N
1551411395.9,286047001.5,N
1551411415.7,286047002.2,N
1551411435.6,286047000.0,N
1551411455.4,286047000.0,N
1551411475.2,286047000.6,N
1551411495.1,286047001.8,N
1551411496.0,286047001.8,N
1551411515.8,286047000.4,N
1551411535.7,286047002.9,N
1551411555.5,286047003.8,N
1551411575.3,286047001.6,N
1551411595.2,286047001.5,N
1551411615.0,286047003.3,N
1551411615.9,286047003.3,N
1551411635.8,286047001.7,N
1551411655.6,286047004.1,N
1551411675.4,286047001.5,N
1551411695.3,286047003.5,N
1551411715.1,286047004.8,Y
1551411735.8,286047004.2,P
1551411755.7,286047001.3,N
1551411775.5,286047005.9,P
1551411795.4,286047002.7,N
1551411815.2,286047002.7,N
1551411835.0,286047000.4,N
1551411835.9,286047000.4,N
1551411855.8,286047000.7,N
1551411875.6,286047000.4,N
1551411895.4,286047002.4,N
1551411915.3,286047001.9,N
1551411935.1,286047001.6,N
1551411955.9,286047000.3,N
1551411975.7,286047001.9,N
1551411995.5,286047002.8,N
1551412015.4,286047000.1,N
1551412035.2,286047002.3,N
1551412055.0,286046999.9,N
1551412056.0,286046999.9,N
1551412075.8,286046998.3,N
1551412095.6,286046998.1,N
1551412115.5,286046999.4,N
1551412135.3,286047001.0,N
1551412155.1,286047000.0,N
1551412175.9,286046998.8,N
1551412195.7,286047002.8,N
1551412215.6,286047001.3,N
1551412235.4,286047002.1,N
1551412255.2,286047000.3,N
1551412275.1,286047002.6,N
1551412276.0,286047002.6,N
1551412295.8,286047000.9,N
1551412315.7,286047002.4,N
1551412335.5,286047001.9,N
1551412355.3,286047002.0,N
1551412375.2,286047001.7,N
1551412395.0,286047001.4,N
1551412395.9,286047001.4,N
1551412415.8,286047001.8,N
1551412435.6,286047001.8,N
1551412455.4,286047001.6,N
1551412475.3,286047000.0,N
1551412495.1,286047002.2,N
1551412515.8,286047002.4,N
1551412535.7,286046999.0,N
1551412555.5,286046997.0,N
1551412575.4,286046997.7,N
1551412595.2,286046998.8,N
1551412615.0,286046998.1,N
1551412615.9,286046998.1,N
1551412635.8,286047003.9,N
1551412655.6,286047004.0,N
1551412675.5,286046999.0,N
1551412695.3,286046999.2,N
1551412715.1,286047000.6,N
1551412735.9,286046998.5,N
1551412755.7,286047000.4,N
1551412775.5,286047000.4,N
1551412795.4,286046998.7,N
